Simultaneous Nadir Overpasses (SNOs) Predictions

Prediction of SNOs between GOES-16 and NOAA-20 Satellite Orbit:

Table of predicted SNOs for the next 14.0 days since TLE Epoch: 8/13/2022
Index Date Time (GOES-16) GOES-16 Lat,Lon NOAA-20 Lat,Lon Distance(km) Time Diff (sec)
1 08/13/2022 06:44:36 0.02, -75.19 0.96, -79.41 480.95 80
2 08/14/2022 06:23:10 0.02, -75.19 -0.06, -74.88 36.25 80
3 08/16/2022 18:26:19 -0.02, -75.22 -0.13, -75.64 48.77 80
4 08/17/2022 18:10:14 -0.02, -75.23 0.89, -71.11 469.16 80
5 08/19/2022 06:32:00 0.02, -75.24 0.30, -76.37 129.29 80
6 08/20/2022 06:10:35 0.01, -75.26 -0.72, -71.84 388.63 80
7 08/21/2022 18:32:30 0.01, -75.28 -0.42, -77.15 213.64 80
8 08/22/2022 18:16:24 0.01, -75.29 0.60, -72.62 304.68 80
9 08/24/2022 06:38:11 -0.01, -75.32 0.58, -77.88 292.62 80
10 08/25/2022 06:16:45 -0.00, -75.33 -0.44, -73.35 226.05 80
11 08/26/2022 18:38:41 0.00, -75.36 -0.71, -78.66 374.78 80
